| time (UTC) | temp C | wind direction | speed KPH | gust KPH | rain 1hr cm | rain 24hr cm | rain mn cm | humidity % | barometer mb |
| 20260508113031 | 5 | 191 | 0.0 | 3.2 | 0.00 | 0.00 | 0.00 | 85 | 1017.3 |
| 20260508111605 | 5 | 227 | 0.0 | 3.2 | 0.00 | 0.00 | 0.00 | 85 | 1017.2 |
| 20260508110030 | 5 | 247 | 0.0 | 3.2 | 0.00 | 0.00 | 0.00 | 84 | 1017.1 |
| 20260508103030 | 4 | 270 | 0.0 | 4.8 | 0.00 | 0.00 | 0.00 | 83 | 1017.1 |
| 20260508101541 | 4 | 266 | 0.0 | 6.4 | 0.00 | 0.00 | 0.00 | 83 | 1017.1 |
| 20260508094604 | 5 | 247 | 0.0 | 0.0 | 0.00 | 0.00 | 0.00 | 80 | 1017.1 |
| 20260508093028 | 5 | 247 | 0.0 | 0.0 | 0.00 | 0.00 | 0.00 | 78 | 1017.0 |
| 20260508091528 | 5 | 247 | 0.0 | 1.6 | 0.00 | 0.00 | 0.00 | 76 | 1017.1 |
| 20260508090030 | 6 | 247 | 0.0 | 1.6 | 0.00 | 0.00 | 0.00 | 75 | 1017.1 |
| 20260508084532 | 6 | 247 | 0.0 | 1.6 | 0.00 | 0.00 | 0.00 | 74 | 1017.2 |
| 20260508083032 | 6 | 249 | 0.0 | 3.2 | 0.00 | 0.00 | 0.00 | 71 | 1017.2 |
| 20260508081529 | 7 | 151 | 0.0 | 3.2 | 0.00 | 0.00 | 0.00 | 69 | 1017.2 |
| 20260508080038 | 7 | 112 | 0.0 | 1.6 | 0.00 | 0.00 | 0.00 | 66 | 1017.2 |
| 20260508074531 | 7 | 112 | 0.0 | 1.6 | 0.00 | 0.00 | 0.00 | 67 | 1017.3 |
| 20260508073054 | 8 | 112 | 0.0 | 4.8 | 0.00 | 0.00 | 0.00 | 66 | 1017.3 |
| 20260508071532 | 8 | 114 | 0.0 | 4.8 | 0.00 | 0.00 | 0.00 | 64 | 1017.4 |
| 20260508070035 | 8 | 117 | 0.0 | 6.4 | 0.00 | 0.00 | 0.00 | 64 | 1017.3 |
| 20260508064536 | 8 | 129 | 3.2 | 8.0 | 0.00 | 0.00 | 0.00 | 62 | 1017.4 |
| 20260508061532 | 11 | 145 | 3.2 | 9.7 | 0.00 | 0.00 | 0.00 | 54 | 1017.6 |
| 20260508060108 | 11 | 193 | 3.2 | 8.0 | 0.00 | 0.00 | 0.00 | 52 | 1017.7 |
| 20260508053031 | 12 | 194 | 6.4 | 11.3 | 0.00 | 0.00 | 0.00 | 45 | 1017.8 |
| 20260508051529 | 13 | 195 | 8.0 | 12.9 | 0.00 | 0.00 | 0.00 | 40 | 1017.8 |
| 20260508050029 | 14 | 200 | 11.3 | 19.3 | 0.00 | 0.00 | 0.00 | 37 | 1017.8 |
| 20260508043032 | 14 | 197 | 11.3 | 22.5 | 0.00 | 0.00 | 0.00 | 35 | 1017.7 |
| 20260508041530 | 15 | 205 | 8.0 | 14.5 | 0.00 | 0.00 | 0.00 | 33 | 1017.7 |
| 20260508040032 | 15 | 207 | 9.7 | 16.1 | 0.00 | 0.00 | 0.00 | 34 | 1017.4 |
| 20260508034532 | 15 | 213 | 9.7 | 19.3 | 0.00 | 0.00 | 0.00 | 34 | 1017.4 |
| 20260508031531 | 16 | 212 | 11.3 | 20.9 | 0.00 | 0.00 | 0.00 | 31 | 1017.1 |
| 20260508030105 | 16 | 211 | 12.9 | 27.4 | 0.00 | 0.00 | 0.00 | 30 | 1017.1 |
| 20260508024530 | 17 | 226 | 12.9 | 24.1 | 0.00 | 0.00 | 0.00 | 31 | 1017.0 |
| 20260508023031 | 17 | 226 | 9.7 | 20.9 | 0.00 | 0.00 | 0.00 | 30 | 1016.9 |
| 20260508021529 | 18 | 226 | 11.3 | 22.5 | 0.00 | 0.00 | 0.00 | 30 | 1016.7 |
| 20260508020029 | 18 | 233 | 11.3 | 25.7 | 0.00 | 0.00 | 0.00 | 29 | 1016.7 |
| 20260508013103 | 20 | 245 | 12.9 | 29.0 | 0.00 | 0.00 | 0.00 | 28 | 1016.7 |
| 20260508010032 | 20 | 239 | 14.5 | 25.7 | 0.00 | 0.00 | 0.00 | 25 | 1016.8 |
| 20260508004529 | 20 | 222 | 16.1 | 29.0 | 0.00 | 0.00 | 0.00 | 24 | 1016.7 |
| 20260508003030 | 20 | 230 | 17.7 | 32.2 | 0.00 | 0.00 | 0.00 | 23 | 1016.7 |
| 20260508000028 | 21 | 220 | 17.7 | 32.2 | 0.00 | 0.00 | 0.00 | 23 | 1016.6 |
| 20260507234531 | 21 | 216 | 14.5 | 29.0 | 0.00 | 0.00 | 0.00 | 23 | 1016.6 |
| 20260507233028 | 21 | 218 | 16.1 | 30.6 | 0.00 | 0.00 | 0.00 | 23 | 1016.7 |
| 20260507231638 | 20 | 224 | 16.1 | 33.8 | 0.00 | 0.00 | 0.00 | 24 | 1016.9 |
| 20260507230030 | 20 | 221 | 12.9 | 29.0 | 0.00 | 0.00 | 0.00 | 24 | 1017.0 |
| 20260507224607 | 20 | 237 | 14.5 | 27.4 | 0.00 | 0.00 | 0.00 | 24 | 1017.0 |
| 20260507223029 | 20 | 217 | 17.7 | 32.2 | 0.00 | 0.00 | 0.00 | 25 | 1017.2 |
| 20260507221604 | 20 | 211 | 14.5 | 29.0 | 0.00 | 0.00 | 0.00 | 26 | 1017.4 |
| 20260507214529 | 21 | 208 | 16.1 | 33.8 | 0.00 | 0.00 | 0.00 | 27 | 1017.5 |
| 20260507213030 | 20 | 189 | 9.7 | 27.4 | 0.00 | 0.00 | 0.00 | 35 | 1017.5 |
| 20260507211540 | 20 | 5 | 8.0 | 16.1 | 0.00 | 0.00 | 0.00 | 38 | 1017.6 |
| 20260507210107 | 20 | 246 | 9.7 | 17.7 | 0.00 | 0.00 | 0.00 | 29 | 1017.8 |
| 20260507204533 | 20 | 202 | 14.5 | 27.4 | 0.00 | 0.00 | 0.00 | 30 | 1017.8 |
| 20260507203032 | 20 | 254 | 9.7 | 25.7 | 0.00 | 0.00 | 0.00 | 35 | 1017.9 |
| 20260507201531 | 20 | 275 | 11.3 | 27.4 | 0.00 | 0.00 | 0.00 | 32 | 1018.0 |
| 20260507200031 | 20 | 197 | 17.7 | 27.4 | 0.00 | 0.00 | 0.00 | 29 | 1018.2 |
| 20260507194531 | 20 | 208 | 16.1 | 25.7 | 0.00 | 0.00 | 0.00 | 30 | 1018.2 |
| 20260507193106 | 18 | 222 | 12.9 | 24.1 | 0.00 | 0.00 | 0.00 | 35 | 1018.4 |
| 20260507191530 | 18 | 294 | 6.4 | 27.4 | 0.00 | 0.00 | 0.00 | 36 | 1018.4 |
| 20260507190029 | 18 | 265 | 6.4 | 11.3 | 0.00 | 0.00 | 0.00 | 34 | 1018.6 |
| 20260507184538 | 18 | 240 | 9.7 | 22.5 | 0.00 | 0.00 | 0.00 | 32 | 1018.8 |
| 20260507183046 | 18 | 203 | 12.9 | 20.9 | 0.00 | 0.00 | 0.00 | 34 | 1018.9 |
| 20260507181530 | 17 | 175 | 9.7 | 22.5 | 0.00 | 0.00 | 0.00 | 44 | 1018.9 |
| 20260507180031 | 16 | 277 | 4.8 | 16.1 | 0.00 | 0.00 | 0.00 | 54 | 1019.0 |
| 20260507174532 | 15 | 316 | 4.8 | 11.3 | 0.00 | 0.00 | 0.00 | 59 | 1019.2 |
| 20260507173029 | 15 | 9 | 12.9 | 19.3 | 0.00 | 0.00 | 0.00 | 60 | 1019.3 |
| 20260507171533 | 15 | 299 | 8.0 | 19.3 | 0.00 | 0.00 | 0.00 | 58 | 1019.4 |
| 20260507170109 | 13 | 39 | 8.0 | 16.1 | 0.00 | 0.00 | 0.00 | 62 | 1019.5 |
| 20260507164532 | 15 | 45 | 9.7 | 22.5 | 0.00 | 0.00 | 0.00 | 55 | 1019.5 |
| 20260507163033 | 14 | 213 | 9.7 | 19.3 | 0.00 | 0.00 | 0.00 | 55 | 1019.5 |
| 20260507161532 | 13 | 213 | 12.9 | 20.9 | 0.00 | 0.00 | 0.00 | 58 | 1019.6 |
| 20260507160145 | 13 | 201 | 8.0 | 19.3 | 0.00 | 0.00 | 0.00 | 60 | 1019.8 |
| 20260507154532 | 13 | 181 | 8.0 | 19.3 | 0.00 | 0.00 | 0.00 | 62 | 1019.8 |
| 20260507153034 | 13 | 185 | 6.4 | 17.7 | 0.00 | 0.00 | 0.00 | 64 | 1019.9 |
| 20260507150048 | 11 | 37 | 4.8 | 11.3 | 0.00 | 0.00 | 0.00 | 75 | 1019.9 |
| 20260507144534 | 10 | 27 | 9.7 | 14.5 | 0.00 | 0.00 | 0.00 | 78 | 1019.8 |
| 20260507141606 | 11 | 327 | 3.2 | 14.5 | 0.00 | 0.00 | 0.00 | 71 | 1019.7 |
| 20260507140031 | 11 | 225 | 11.3 | 25.7 | 0.00 | 0.00 | 0.00 | 72 | 1019.5 |
| 20260507134608 | 11 | 218 | 12.9 | 27.4 | 0.00 | 0.00 | 0.00 | 73 | 1019.4 |
| 20260507133028 | 11 | 186 | 8.0 | 22.5 | 0.00 | 0.00 | 0.00 | 75 | 1019.4 |
| 20260507131531 | 11 | 184 | 11.3 | 24.1 | 0.00 | 0.00 | 0.00 | 75 | 1019.3 |
| 20260507130031 | 11 | 208 | 12.9 | 29.0 | 0.00 | 0.00 | 0.00 | 75 | 1019.3 |
| 20260507124530 | 11 | 205 | 17.7 | 33.8 | 0.00 | 0.00 | 0.00 | 75 | 1019.3 |
| 20260507123029 | 11 | 210 | 17.7 | 30.6 | 0.00 | 0.00 | 0.00 | 75 | 1019.3 |
| 20260507121530 | 11 | 227 | 14.5 | 30.6 | 0.00 | 0.00 | 0.00 | 75 | 1019.3 |
| 20260507120031 | 11 | 228 | 16.1 | 29.0 | 0.00 | 0.00 | 0.00 | 75 | 1019.2 |